TimeCDT,TemperatureF,Dew PointF,Humidity,Sea Level PressureIn,VisibilityMPH,Wind Direction,Wind SpeedMPH,Gust SpeedMPH,PrecipitationIn,Events,Conditions,WindDirDegrees,DateUTC
12:53 AM,64.9,48.9,56,29.90,10.0,SE,15.0,-,N/A,,Clear,130,2012-06-14 05:53:00
1:53 AM,64.0,48.9,58,29.88,10.0,SE,12.7,-,N/A,,Clear,140,2012-06-14 06:53:00
2:53 AM,64.0,48.9,58,29.87,10.0,SE,11.5,-,N/A,,Partly Cloudy,130,2012-06-14 07:53:00
3:53 AM,64.9,48.9,56,29.84,10.0,SE,10.4,-,N/A,,Overcast,130,2012-06-14 08:53:00
4:53 AM,66.0,50.0,56,29.82,10.0,SE,10.4,-,N/A,,Mostly Cloudy,140,2012-06-14 09:53:00
5:53 AM,68.0,50.0,52,29.79,10.0,SSE,13.8,21.9,N/A,,Clear,160,2012-06-14 10:53:00
6:53 AM,68.0,52.0,56,29.79,10.0,SSE,12.7,25.3,N/A,,Partly Cloudy,160,2012-06-14 11:53:00
7:53 AM,68.0,53.1,59,29.79,10.0,SE,15.0,24.2,N/A,,Mostly Cloudy,140,2012-06-14 12:53:00
8:53 AM,69.1,55.0,61,29.77,10.0,SE,15.0,25.3,N/A,,Overcast,140,2012-06-14 13:53:00
9:26 AM,69.8,55.4,60,29.87,10.0,NNW,15.0,24.2,N/A,Thunderstorm,Overcast,340,2012-06-14 14:26:00
9:45 AM,66.2,55.4,68,29.90,1.5,Variable,3.5,-,0.11,Rain-Thunderstorm,Thunderstorms and Rain,0,2012-06-14 14:45:00
9:48 AM,64.4,57.2,77,29.89,0.8,North,6.9,-,0.24,Rain-Thunderstorm,Heavy Thunderstorms and Rain,350,2012-06-14 14:48:00
9:53 AM,62.1,57.0,84,29.89,0.5,North,6.9,-,0.28,Rain-Thunderstorm,Heavy Thunderstorms and Rain,10,2012-06-14 14:53:00
9:59 AM,62.6,57.2,82,29.88,2.0,NE,6.9,-,0.02,Rain-Thunderstorm,Rain,40,2012-06-14 14:59:00
10:07 AM,62.6,59.0,88,29.89,4.0,ESE,8.1,-,0.05,Rain-Thunderstorm,Thunderstorms and Rain,110,2012-06-14 15:07:00
10:21 AM,62.6,59.0,88,29.87,1.8,East,10.4,-,0.17,Rain-Thunderstorm,Heavy Thunderstorms and Rain,100,2012-06-14 15:21:00
10:27 AM,62.6,59.0,88,29.87,3.0,ESE,12.7,-,0.17,Rain-Thunderstorm,Light Thunderstorms and Rain,110,2012-06-14 15:27:00
10:53 AM,62.1,59.0,90,29.79,7.0,SE,25.3,31.1,0.19,Rain-Thunderstorm,Light Thunderstorms and Rain,130,2012-06-14 15:53:00
11:32 AM,64.4,60.8,88,29.81,10.0,SE,12.7,21.9,0.05,Rain,Light Rain,140,2012-06-14 16:32:00
11:41 AM,64.4,60.8,88,29.82,10.0,SE,13.8,-,0.05,Rain-Thunderstorm,Light Rain,140,2012-06-14 16:41:00
11:53 AM,64.0,61.0,90,29.80,10.0,SE,11.5,19.6,0.05,,Mostly Cloudy,140,2012-06-14 16:53:00
12:03 PM,64.4,60.8,88,29.81,10.0,SE,11.5,20.7,0.00,Rain-Thunderstorm,Light Thunderstorms and Rain,130,2012-06-14 17:03:00
12:50 PM,64.4,60.8,88,29.78,9.0,ESE,11.5,26.5,0.04,Rain,Light Rain,120,2012-06-14 17:50:00
12:53 PM,64.0,60.1,87,29.79,10.0,SE,12.7,-,0.04,Rain,Light Rain,140,2012-06-14 17:53:00
1:53 PM,66.0,59.0,78,29.79,10.0,SE,20.7,26.5,0.00,,Overcast,140,2012-06-14 18:53:00
2:53 PM,64.9,59.0,81,29.78,10.0,SE,12.7,20.7,N/A,,Mostly Cloudy,130,2012-06-14 19:53:00
3:33 PM,66.2,60.8,83,29.78,10.0,SE,5.8,-,N/A,Thunderstorm,Overcast,140,2012-06-14 20:33:00
3:53 PM,68.0,63.0,84,29.78,0.8,South,10.4,17.3,0.18,Rain-Thunderstorm,Heavy Thunderstorms and Rain,170,2012-06-14 20:53:00
4:06 PM,66.2,64.4,94,29.78,2.0,SSE,8.1,-,0.10,Rain-Thunderstorm,Light Rain,150,2012-06-14 21:06:00
4:18 PM,68.0,64.4,88,29.76,3.0,SSE,23.0,29.9,0.13,Rain-Thunderstorm,Light Thunderstorms and Rain,150,2012-06-14 21:18:00
4:53 PM,69.1,66.0,90,29.76,10.0,SE,17.3,23.0,0.14,,Mostly Cloudy,140,2012-06-14 21:53:00
5:53 PM,69.1,66.0,90,29.76,10.0,SE,17.3,-,N/A,Thunderstorm,Overcast,140,2012-06-14 22:53:00
6:12 PM,69.8,64.4,83,29.77,10.0,SE,12.7,-,N/A,,Overcast,140,2012-06-14 23:12:00
6:53 PM,69.1,64.9,87,29.77,10.0,ESE,15.0,20.7,N/A,,Scattered Clouds,120,2012-06-14 23:53:00
7:53 PM,69.1,66.0,90,29.77,10.0,SE,16.1,-,N/A,,Mostly Cloudy,130,2012-06-15 00:53:00
8:53 PM,68.0,64.0,87,29.78,10.0,SE,11.5,-,N/A,,Mostly Cloudy,130,2012-06-15 01:53:00
9:53 PM,68.0,63.0,84,29.85,10.0,SE,18.4,29.9,N/A,,Overcast,140,2012-06-15 02:53:00
10:19 PM,68.0,62.6,83,29.86,10.0,SE,12.7,38.0,N/A,,Squalls,130,2012-06-15 03:19:00
10:53 PM,68.0,62.1,81,29.86,10.0,SE,16.1,-,N/A,,Scattered Clouds,140,2012-06-15 03:53:00
11:53 PM,66.9,62.1,84,29.88,10.0,SSE,13.8,-,N/A,,Mostly Cloudy,150,2012-06-15 04:53:00